Regional Weather Roundup
Issued by NWS

Home | Current Version | Previous Version | Graphics & Text | Print | Product List | Glossary Off
Versions: 1 2 3 4 5 6 7 8 9 10 11 12 13 14 15 16 17 18 19 20 21 22 23 24 25 26 27 28 29 30 31 32 33 34 35 36 37 38 39 40 41 42 43 44 45 46 47 48 49 50

631
ASUS43 KTOP 211008
RWRKS

WEATHER ROUNDUP FOR KANSAS
NATIONAL WEATHER SERVICE GOODLAND KS
500 AM CDT SAT OCT 21 2017

NOTE:  "FAIR" INDICATES FEW OR NO CLOUDS BELOW 12,000 FEET WITH NO
SIGNIFICANT WEATHER AND/OR OBSTRUCTIONS TO VISIBILITY.

KSZ001>006-013>018-027>032-041>047-211100-
NORTHWEST KANSAS

CITY           SKY/WX    TMP DP  RH WIND       PRES   REMARKS
GOODLAND       CLOUDY    54  37  52 NW20G30   29.61R
HAYS           PTCLDY    66  61  84 S29G35    29.56S
HILL CITY      CLOUDY    67  59  75 S21G36    29.52S
RUSSELL        PTCLDY    68  63  84 S28G41    29.57S
$$

KSZ061>065-074>080-084>089-211100-
SOUTHWEST KANSAS

CITY           SKY/WX    TMP DP  RH WIND       PRES   REMARKS
DODGE CITY     CLEAR     63  58  83 S25G35    29.62F
ELKHART          N/A     59  51  75 S15         N/A
GARDEN CITY    CLEAR     62  55  77 S20G28    29.58F
GREAT BEND     CLOUDY    66  62  87 S26G35    29.61F
LIBERAL        CLEAR     61  57  87 S16       29.64S
PRATT          CLOUDY    66  61  84 S23G29    29.68F
$$

KSZ066>073-081>083-090>101-211100-
SOUTHEAST KANSAS

CITY           SKY/WX    TMP DP  RH WIND       PRES   REMARKS
CHANUTE        CLOUDY    66  58  75 S22G31    29.85F
COFFEYVILLE    CLOUDY    66  58  75 S16       29.86S
HUTCHINSON     CLOUDY    69  64  84 S24G35    29.69F
MEDICINE LODGE   N/A     67  62  84 S18G32    29.69F
NEWTON         CLOUDY    68  62  81 S30G37    29.72F
PARSONS        CLOUDY    66  57  72 S14G23    29.87S
WICHITA INTL   CLOUDY    68  64  87 S21G30    29.73F
WICHITA JABRA  CLOUDY    68  64  87 S22G32    29.75F
WICHITA MCCONL CLOUDY    68  63  83 S23G36    29.75S
WINFIELD       CLOUDY    69  64  84 S18G25    29.80S
$$

KSZ007>012-019>026-033>040-048>060-102>105-211100-
NORTHEAST KANSAS

CITY           SKY/WX    TMP DP  RH WIND       PRES   REMARKS
CONCORDIA      LGT RAIN  68  63  84 S28G41    29.61S
EMPORIA        CLOUDY    64  59  83 S23G31    29.78S
LAWRENCE       CLOUDY    65  59  81 S15G28    29.80F
MANHATTAN      CLOUDY    68  62  81 S17G29    29.69F
MARYSVILLE     CLOUDY    68  61  77 S23G31    29.66S
OLATHE IND     CLOUDY    63  57  81 S16G22    29.83S
OLATHE EXE     CLOUDY    63  57  81 S17G25    29.83S
SALINA         PTCLDY    70  64  81 S23G37    29.66S
TOPEKA BILLARD CLOUDY    67  61  81 S17G24    29.77S
TOPEKA FORBES  CLOUDY    67  60  78 S20G31    29.77S
$$




USA.gov is the U.S. government's official web portal to all federal, state and local government web resources and services.